User: anonymous   Login
Location: M.A.R.S.Observatory
(35.4031°N, 81.5481°W)
Time: 01:33:11
(UTC-05:00)
Language:

SL-8 R/B - Orbit

View from above orbital plane
View from above orbital plane
View from above satellite
View from above satellite

Ground track
Ground track

The orbit data is extracted from the following two-line orbital elements,

1 33066U 08031G   17324.61022330 +.00000026 +00000-0 +37090-4 0  9995
2 33066 048.4434 098.7086 0007285 056.5136 034.3881 14.69583638505711
Epoch (UTC): 20 November 2017 14:38:43
Eccentricity: 0.0007285
inclination: 48.4434°
perigee height: 657 km
apogee height: 667 km
right ascension of ascending node: 98.7086°
argument of perigee: 56.5136°
revolutions per day: 14.69583638
mean anomaly at epoch: 34.3881°
orbit number at epoch: 50571

The dashed part of the orbit path shows where the satellite is in the earth's shadow,  

DLR